Location: Newark
(7.0858°N, 171.3717°E)
Time: 06:55:55
(UTC+00:00)

Courier 1B - Pass Details

Date: 04 December 2020
Orbit: 962 x 1209 km, 28.3° (Epoch: 20 January)

Event Time Altitude Azimuth Distance (km) Brightness Sun altitude
Rises 11:12:02 0° 316° (NW) 3,690 - -66.8°
Reaches altitude 10° 11:16:43 10° 346° (NNW) 2,791 - -67.6°
Maximum altitude 11:19:17 12° 9° (N) 2,661 - -68.0°
Drops below altitude 10° 11:21:53 10° 31° (NNE) 2,857 - -68.5°
Sets 11:26:50 0° 60° (ENE) 3,880 - -69.3°
